Location: Coopersdale
(40.3556°N, 78.9372°W)
Time: 21:52:48
(UTC+00:00)

Altair - Visible Passes

Search period start: 19 January 2021 00:00
Search period end: 29 January 2021 00:00
Orbit: 1501 x 1682 km, 47.2° (Epoch: 18 January)

Date Brightness Start Highest point End Pass type
(mag) Time Alt. Az. Time Alt. Az. Time Alt. Az.
19 Jan 9.6 08:57:55 10° SSE 09:04:00 18° ESE 09:10:07 10° E visible
19 Jan 8.1 10:57:29 10° SW 11:07:19 62° SE 11:17:17 10° ENE visible
20 Jan 9.6 08:33:36 10° SSE 08:38:57 16° ESE 08:44:21 10° E visible
20 Jan 8.2 10:32:26 10° SW 10:42:09 58° SE 10:52:01 10° ENE visible
21 Jan 9.7 08:09:29 10° SSE 08:13:55 14° ESE 08:18:23 10° E visible
21 Jan 8.2 10:07:25 10° SSW 10:17:00 54° SE 10:26:45 10° ENE visible
22 Jan 9.6 07:46:51 11° SE 07:48:54 12° ESE 07:52:04 10° E visible
22 Jan 8.3 09:44:58 20° SSW 09:51:51 50° SE 10:01:29 10° ENE visible
22 Jan 7.7 11:46:22 10° WSW 11:56:30 76° NNW 12:06:43 10° ENE visible
23 Jan 8.3 09:22:12 30° S 09:26:44 46° SE 09:36:11 10° ENE visible
23 Jan 7.7 11:21:07 10° WSW 11:31:14 79° NNW 11:41:28 10° ENE visible
24 Jan 8.4 08:59:14 37° SSE 09:01:36 42° SE 09:10:52 10° ENE visible
24 Jan 7.6 10:57:19 16° WSW 11:05:59 83° NNW 11:16:14 10° ENE visible
25 Jan 8.4 08:36:04 39° SE 08:36:29 39° SE 08:45:32 10° ENE visible
25 Jan 7.6 10:34:08 26° WSW 10:40:44 86° NNW 10:51:00 10° ENE visible
26 Jan 8.6 08:12:46 34° ESE 08:12:46 34° ESE 08:20:11 10° ENE visible
26 Jan 7.5 10:10:49 38° WSW 10:15:29 90° NW 10:25:45 10° ENE visible
27 Jan 9.0 07:49:20 28° E 07:49:20 28° E 07:54:49 10° ENE visible
27 Jan 7.5 09:47:23 54° SW 09:50:16 86° SSE 10:00:30 10° ENE visible
27 Jan 7.9 11:45:53 10° W 11:55:52 60° N 12:05:56 10° ENE visible
28 Jan 9.3 07:25:50 21° E 07:25:50 21° E 07:29:24 10° ENE visible
28 Jan 7.4 09:23:52 72° SSW 09:25:03 82° SSE 09:35:15 10° ENE visible
28 Jan 7.8 11:21:54 15° W 11:30:34 61° N 11:40:39 10° ENE visible
